Dewpoint
8 9 9 8 8 8 7 7 6 5 3 1 -4 -8 -9 -8 -5 -2 -3 -1 0 0 1 1 0 1 3 3 2 2 2 1 0 0 -0 -1 -2 -1 0 3 5 8 9
6 9 10 9 9 9 8 7 7 5 -1 -2 -2 -3 -7 -5 -3 -3 -1 -1 -1 -1 -0 -1 1 4 3 3 2 2 3 4 1 0 -0 -3 -5 -1 1 3 7 11 9
4 9 10 10 9 9 9 8 7 3 -1 1 2 1 -1 -4 -2 -2 -1 -1 -2 -1 -1 1 5 5 4 4 5 6 5 4 3 3 2 5 5 -2 1 2 4 7 10
3 6 9 10 10 10 9 8 6 4 5 5 4 3 1 -2 -3 -3 -2 -1 -2 -3 -1 0 3 5 5 5 5 6 6 6 6 6 5 3 5 2 -2 0 3 3 4
3 5 8 9 10 10 10 8 7 7 7 8 7 6 3 -1 -4 -5 -5 -4 -4 -3 -2 -1 1 3 5 5 5 5 6 6 6 6 5 5 7 3 -1 -3 -1 3 4
6 4 6 8 10 10 11 9 8 9 9 9 8 6 4 2 -3 -5 -6 -6 -5 -4 -3 -2 -1 1 2 4 5 4 4 5 6 5 5 5 6 4 5 -1 -3 -2 -1
5 4 6 7 8 10 10 10 9 9 10 10 9 7 5 2 -1 -5 -6 -6 -6 -5 -4 -2 0 1 1 2 3 5 5 4 5 5 6 5 7 6 4 -3 -5 -3 -3
4 4 6 7 8 9 10 10 9 10 10 10 9 6 4 2 -0 -4 -6 -7 -6 -5 -5 -3 -1 1 2 2 3 4 5 6 5 5 5 5 5 6 5 3 4 1 -3
6 4 5 6 8 9 9 9 10 9 9 8 6 5 4 3 2 0 -4 -5 -5 -5 -4 -3 -1 2 3 2 2 3 4 5 6 7 6 6 4 4 6 4 4 4 3
9 8 5 5 7 8 8 9 9 9 8 6 4 3 3 4 4 4 1 -2 -4 -4 -4 -3 -2 -1 4 5 4 4 4 5 5 5 7 6 5 5 4 5 5 5 4
9 10 8 5 5 5 5 5 6 6 6 5 5 5 5 6 6 6 5 3 1 -2 -2 -2 -1 -1 1 6 7 7 6 5 5 6 5 6 7 5 5 4 3 2 3
8 6 10 8 5 5 5 5 5 6 6 6 7 7 7 7 7 7 7 7 6 4 2 1 1 4 7 5 5 8 9 8 7 5 5 5 5 6 5 4 4 2 3
6 6 6 9 6 6 5 6 7 7 7 7 8 7 7 8 9 9 9 9 9 8 6 5 5 9 10 10 10 9 8 7 8 8 7 6 6 6 6 5 4 3 2
6 6 6 6 7 6 7 7 7 7 7 8 8 8 11 11 11 11 11 11 11 9 9 9 10 11 11 12 12 12 11 10 10 10 9 9 8 7 6 6 5 4 3
8 8 8 8 7 7 7 7 7 8 9 9 9 12 12 12 12 12 11 11 11 11 12 11 11 11 12 12 12 12 12 12 11 11 10 10 10 8 7 6 7 5 4
10 10 10 9 9 9 9 9 9 9 9 11 12 12 12 12 11 12 12 11 11 11 12 12 13 13 12 12 12 12 12 12 12 11 11 10 10 11 10 8 7 6 6
9 11 11 11 12 12 12 11 10 10 12 12 12 13 13 12 11 11 11 11 11 10 11 13 13 13 13 12 12 12 12 12 11 12 12 12 12 11 11 10 10 9 7
6 10 12 13 13 12 12 12 13 12 12 12 12 12 12 11 11 11 11 10 11 11 13 12 12 12 12 12 12 12 11 11 11 11 11 11 11 12 12 12 11 10 10
4 10 13 14 14 12 12 12 13 12 12 11 12 12 11 11 10 10 10 9 8 7 6 5 3 2 1 3 6 6 5 7 7 8 9 9 9 9 10 11 11 12 11
5 11 14 14 14 13 13 14 13 13 12 11 12 11 8 5 1 -2 -4 -5 -5 -5 -5 -5 -5 -4 -3 -2 -3 -2 -5 -7 -8 -6 1 7 7 8 8 9 10 10 11
7 9 14 14 15 14 13 13 13 12 11 11 6 -1 -7 -10 -11 -11 -12 -12 -12 -11 -10 -9 -6 -3 -2 0 3 5 3 2 -1 1 -1 6 7 6 5 5 7 8 8
9 9 11 14 14 14 13 13 11 11 8 3 -4 -8 -9 -10 -14 -17 -18 -19 -17 -13 -11 -7 -3 -1 0 0 2 4 3 2 5 3 -1 -2 -0 -2 -1 2 5 6 7
9 10 12 15 14 14 14 12 11 9 1 -6 -8 -10 -15 -20 -21 -22 -20 -16 -13 -11 -10 -9 -7 -4 -4 -5 -5 1 3 2 4 3 3 3 -0 -2 -2 -3 -3 -2 1
9 13 13 14 14 14 13 11 10 3 -6 -10 -17 -22 -24 -23 -20 -16 -14 -12 -11 -10 -9 -11 -9 -8 -9 -10 -12 -12 -11 -6 3 -0 -1 0 3 2 -5 -5 -4 -3 -2
12 13 13 14 13 13 10 4 -2 -7 -16 -19 -22 -23 -22 -18 -15 -13 -11 -10 -11 -11 -11 -11 -11 -11 -11 -11 -13 -12 -11 -8 -1 1 -0 -3 0 1 2 1 2 -4 -4
13 13 13 13 10 6 -4 -10 -12 -14 -17 -20 -22 -19 -16 -14 -12 -10 -10 -10 -10 -10 -10 -9 -9 -9 -9 -9 -10 -10 -10 -6 -3 -1 -1 -2 -1 -1 2 2 2 0 -1
Wind_Speed
26 24 22 21 20 18 16 15 15 14 14 13 12 11 11 11 13 13 12 11 9 8 7 7 7 7 8 8 9 9 9 9 9 9 9 8 8 7 6 6 7 6 6
27 26 23 21 20 17 14 13 13 11 11 12 11 10 10 10 11 12 11 10 8 7 6 6 7 7 7 8 9 10 11 10 9 10 10 12 13 9 6 6 7 8 5
25 26 23 21 20 17 14 12 11 10 11 11 10 10 9 9 10 10 9 8 7 7 6 6 6 7 7 7 8 8 9 10 8 9 10 10 11 13 11 5 5 4 7
23 26 25 22 20 17 15 13 11 11 10 10 9 9 9 8 8 7 6 6 6 6 5 4 4 5 5 5 5 6 7 8 7 6 8 9 8 10 10 9 8 2 1
23 25 25 24 21 17 15 13 12 11 9 9 7 7 7 7 6 6 5 4 4 4 3 3 2 2 2 2 3 3 4 6 7 6 7 8 7 8 9 8 9 7 5
21 23 24 24 22 20 17 14 13 11 10 8 6 5 4 5 5 5 4 4 3 2 2 1 0 1 2 1 3 4 4 5 6 6 6 7 7 8 8 7 7 8 8
22 23 23 23 22 21 19 16 14 12 10 8 6 5 4 4 3 3 3 3 3 2 2 1 1 2 4 4 5 6 6 6 6 6 6 6 6 8 9 8 7 8 8
19 21 23 23 22 21 19 17 15 13 10 9 7 5 4 2 2 1 1 1 1 2 1 1 2 4 5 7 7 8 8 8 8 8 7 6 7 7 7 8 10 10 11
17 19 22 22 22 21 19 18 16 14 11 9 8 6 3 2 0 0 1 1 2 2 2 2 3 4 7 9 9 9 11 10 10 10 9 8 9 9 8 8 9 10 12
17 18 21 22 22 21 20 18 17 15 12 10 8 6 5 4 3 2 2 2 3 4 4 4 5 6 7 10 11 10 11 13 13 12 12 11 11 10 11 10 10 11 12
17 19 21 22 23 21 20 18 17 15 13 12 10 9 7 5 4 4 4 4 4 5 6 6 7 7 8 9 11 12 12 13 15 15 15 14 13 13 12 12 11 11 11
15 17 20 22 23 22 20 18 17 16 15 14 12 9 7 5 5 5 6 7 7 7 7 8 8 8 8 10 11 13 13 14 15 16 17 16 16 15 15 15 14 13 12
14 16 19 22 22 20 19 18 17 16 15 13 10 7 6 6 7 6 7 8 8 9 8 9 9 7 8 8 8 10 13 15 16 17 18 19 19 18 18 18 18 17 16
15 13 14 17 20 20 18 16 13 13 12 10 8 6 4 4 3 2 2 4 5 6 7 8 8 9 9 10 12 13 14 15 16 17 17 17 20 20 21 21 21 20 19
16 14 14 15 17 16 14 13 12 11 10 8 6 5 1 1 0 2 3 5 7 7 8 9 10 12 13 15 17 18 18 19 19 21 22 20 19 19 21 22 23 24 22
17 16 16 15 14 14 12 11 10 10 9 8 8 6 5 5 4 6 8 9 9 12 12 13 14 14 16 18 20 21 23 24 22 22 23 23 22 22 22 22 23 25 26
17 18 18 17 17 15 13 11 10 11 11 9 10 9 7 5 6 8 10 11 13 14 16 17 18 18 20 21 23 23 21 21 24 26 25 27 27 26 25 25 25 25 26
16 20 20 20 19 18 16 15 14 13 9 9 8 7 7 9 9 10 10 12 13 14 13 15 15 19 19 21 22 21 23 24 23 25 26 26 29 30 31 29 31 30 29
16 21 23 23 23 20 19 16 15 13 10 9 9 8 9 7 7 7 7 7 9 11 13 14 14 17 19 21 25 28 28 31 31 32 31 32 31 30 27 28 29 31 35
19 22 25 25 25 24 20 19 15 10 10 9 10 9 7 5 4 4 6 8 11 13 15 17 19 20 20 23 25 24 26 26 26 24 20 19 21 22 24 25 27 29 30
22 25 27 27 27 25 23 20 18 15 15 14 11 8 5 2 3 7 9 11 13 15 17 20 21 21 22 25 26 23 21 15 15 21 21 17 18 20 24 25 26 24 26
22 24 25 29 26 25 22 21 15 17 17 13 9 4 1 5 8 11 13 15 16 17 19 20 21 23 24 25 25 23 17 23 14 13 28 22 22 24 26 28 29 29 29
23 23 27 31 28 28 25 24 21 20 17 11 6 2 4 6 9 11 14 15 15 15 16 16 17 17 18 18 17 15 15 15 26 16 20 21 24 35 31 33 33 33 36
25 24 26 31 32 30 26 23 21 21 16 10 5 4 5 8 10 10 12 13 15 16 16 15 15 15 17 19 20 16 15 19 16 26 16 24 22 21 31 29 32 33 36
26 29 31 33 32 29 26 23 22 18 12 7 3 3 5 7 9 11 12 12 14 15 14 15 16 15 15 17 19 20 20 20 17 20 36 28 29 24 25 30 29 35 35
31 33 35 35 32 29 26 21 16 13 8 4 1 2 3 6 8 9 10 12 11 11 12 11 12 13 14 15 16 17 20 20 19 19 24 32 34 34 28 26 28 32 33
Wind_Direction
181 176 169 160 152 147 146 141 135 129 130 131 127 121 114 117 123 122 115 112 109 106 102 96 89 82 67 63 61 64 59 54 55 64 63 69 70 81 96 98 93 88 89
176 178 174 166 156 155 152 143 134 127 123 123 117 111 111 120 123 120 116 113 110 106 99 93 94 82 67 63 63 61 55 50 54 59 59 60 64 65 97 102 103 99 86
176 176 177 172 163 163 159 152 141 129 124 119 112 107 108 115 121 124 120 114 111 107 101 102 97 82 68 64 65 58 48 44 54 54 58 61 55 54 69 87 107 112 89
175 174 176 175 171 170 168 159 152 141 134 124 120 114 109 112 117 120 117 117 114 111 108 108 99 87 77 62 55 45 40 33 32 35 37 39 44 46 44 55 54 83 167
173 175 175 175 176 176 175 166 162 154 150 143 135 117 107 104 107 114 116 112 109 110 109 105 95 102 87 48 22 24 21 25 25 18 13 27 41 33 33 24 25 29 54
177 177 176 175 177 179 179 177 173 171 171 166 155 133 118 105 104 114 124 120 115 106 110 95 239 273 297 327 328 338 346 350 5 5 3 10 19 14 14 6 360 4 8
178 179 178 177 178 181 182 186 183 187 186 183 179 164 148 133 118 113 123 133 135 149 166 181 269 287 290 294 302 310 317 321 328 344 341 344 348 356 360 1 349 343 346
176 179 182 180 182 182 184 190 193 199 198 198 199 196 179 159 119 110 129 166 177 190 217 231 265 292 290 290 293 299 301 307 312 316 322 322 324 329 344 353 355 348 336
177 183 186 186 186 186 190 194 199 206 208 212 213 213 207 210 190 66 346 301 270 262 256 263 273 279 285 290 292 295 300 303 304 303 301 306 312 312 314 324 334 336 335
176 186 191 192 192 191 193 197 201 206 209 212 220 226 231 241 261 289 312 305 289 281 283 287 291 295 289 295 297 296 299 302 299 295 294 293 294 300 301 302 317 323 326
177 187 193 198 197 196 197 200 201 206 211 217 219 222 230 240 262 289 299 304 307 307 302 297 299 304 296 293 298 301 300 300 299 296 293 290 286 287 286 286 293 300 307
177 182 193 199 201 200 201 204 203 206 212 216 217 222 233 249 262 274 298 311 315 309 307 308 311 312 318 303 295 300 303 302 300 299 295 290 286 279 276 277 278 284 286
178 183 191 197 200 204 207 209 210 211 215 218 224 232 248 264 274 291 308 309 307 306 309 309 313 311 312 321 320 305 301 301 300 297 295 294 288 281 275 272 276 277 277
189 191 190 194 202 205 210 215 218 219 220 222 224 231 263 305 294 283 36 11 1 343 332 329 324 320 316 314 309 304 303 303 304 302 299 298 292 284 278 274 272 274 276
202 200 196 197 198 205 209 214 217 219 217 215 224 181 177 2 252 258 303 323 323 321 315 311 308 308 311 309 309 310 310 302 298 296 295 294 295 290 282 278 276 276 275
209 209 204 195 188 188 189 197 208 208 203 187 190 231 250 255 290 287 281 285 292 290 294 296 296 294 292 292 292 294 294 294 290 289 291 289 286 285 284 280 278 277 277
225 218 205 191 181 178 177 185 182 172 172 200 222 223 245 249 268 279 281 280 280 283 282 287 288 291 289 289 289 292 290 287 288 285 286 286 288 282 279 280 278 274 276
222 218 202 190 182 177 170 159 156 161 182 203 207 214 240 262 265 269 278 284 285 283 292 299 298 296 300 302 301 297 298 292 286 279 279 287 283 291 285 278 275 274 274
219 213 199 190 186 182 174 166 166 167 194 212 225 233 244 243 250 263 278 300 313 315 313 316 316 309 305 299 294 292 295 292 296 295 291 288 286 280 285 279 275 269 267
209 209 201 198 191 188 181 181 184 193 196 208 208 208 204 221 238 276 299 303 306 309 310 307 307 308 309 308 307 307 303 305 304 300 294 285 281 279 279 282 280 282 278
200 206 204 203 192 188 181 180 185 194 186 186 180 181 181 218 325 337 332 328 325 322 320 319 316 315 317 320 325 318 318 318 300 299 289 301 296 290 289 285 285 284 284
208 205 203 201 198 197 190 187 203 200 174 177 169 168 351 340 328 324 326 326 324 324 321 316 316 318 318 320 325 324 321 311 299 297 298 296 296 301 302 290 284 286 289
213 201 198 192 197 192 189 186 184 180 175 169 167 231 300 314 325 329 327 327 326 323 321 322 323 325 330 332 334 327 318 307 312 310 295 296 292 306 305 304 299 293 284
205 191 190 193 192 191 188 188 195 183 179 182 205 262 312 324 328 331 330 327 328 329 328 327 328 327 329 335 336 330 311 305 311 311 305 303 302 295 303 303 304 304 296
194 187 189 190 188 182 181 184 180 180 184 192 221 307 323 327 331 333 333 333 335 338 336 334 333 329 330 330 331 326 318 314 304 300 307 308 302 301 300 301 294 298 297
190 187 186 181 176 175 175 172 176 178 175 163 81 342 340 337 334 334 335 332 331 330 331 323 322 322 321 321 317 318 315 309 304 300 302 308 310 312 307 304 302 305 301
Height
1535 1538 1541 1544 1547 1550 1552 1554 1555 1556 1557 1559 1560 1560 1560 1561 1562 1563 1564 1565 1566 1566 1566 1566 1565 1566 1565 1565 1565 1565 1565 1565 1564 1564 1564 1563 1562 1561 1561 1561 1561 1560 1560
1535 1538 1542 1545 1548 1551 1553 1555 1556 1557 1558 1560 1561 1562 1562 1563 1564 1564 1565 1566 1567 1567 1567 1567 1567 1568 1568 1567 1567 1567 1567 1567 1567 1566 1566 1565 1564 1563 1562 1562 1562 1562 1562
1536 1539 1542 1545 1548 1552 1554 1556 1557 1559 1560 1561 1563 1564 1565 1565 1566 1566 1567 1568 1568 1568 1568 1569 1569 1569 1569 1569 1570 1570 1569 1569 1568 1568 1568 1567 1566 1565 1564 1563 1564 1562 1562
1537 1539 1543 1546 1549 1552 1554 1557 1559 1560 1562 1563 1564 1565 1566 1566 1567 1567 1568 1569 1569 1569 1569 1569 1569 1569 1570 1570 1570 1571 1571 1571 1570 1570 1570 1568 1567 1566 1565 1565 1564 1563 1563
1537 1541 1544 1547 1550 1552 1554 1557 1559 1561 1563 1564 1565 1566 1566 1567 1567 1568 1569 1569 1570 1570 1570 1570 1570 1570 1571 1571 1571 1571 1571 1571 1571 1571 1571 1570 1570 1568 1566 1565 1565 1565 1563
1537 1541 1544 1547 1550 1552 1555 1557 1560 1561 1563 1564 1565 1566 1567 1567 1567 1568 1569 1570 1570 1571 1571 1570 1570 1570 1571 1571 1571 1571 1572 1572 1572 1572 1571 1571 1571 1569 1568 1567 1566 1566 1564
1537 1540 1544 1547 1550 1552 1555 1557 1559 1561 1563 1565 1566 1566 1567 1567 1568 1568 1569 1570 1570 1571 1571 1571 1571 1571 1571 1571 1572 1571 1572 1572 1572 1572 1571 1571 1571 1570 1569 1569 1568 1567 1566
1538 1541 1544 1546 1549 1552 1554 1557 1559 1561 1563 1564 1565 1566 1567 1568 1568 1569 1569 1570 1570 1571 1571 1572 1572 1571 1570 1571 1571 1571 1571 1571 1571 1571 1571 1571 1570 1570 1570 1569 1569 1568 1567
1538 1540 1543 1545 1547 1550 1553 1555 1558 1560 1562 1563 1565 1566 1567 1568 1568 1568 1569 1569 1570 1570 1571 1571 1571 1571 1570 1569 1570 1570 1570 1570 1571 1571 1570 1570 1570 1570 1569 1569 1568 1568 1567
1536 1539 1542 1544 1547 1549 1552 1554 1557 1559 1561 1562 1563 1565 1566 1566 1567 1567 1568 1568 1569 1569 1570 1570 1570 1571 1570 1569 1569 1569 1569 1568 1569 1569 1569 1568 1568 1568 1568 1567 1567 1567 1566
1534 1537 1539 1543 1545 1548 1550 1553 1555 1558 1560 1561 1562 1563 1564 1565 1566 1566 1567 1567 1567 1568 1568 1569 1569 1570 1569 1569 1567 1567 1567 1567 1566 1566 1566 1566 1566 1566 1565 1564 1563 1563 1563
1533 1535 1537 1540 1544 1546 1549 1551 1553 1556 1558 1559 1561 1562 1563 1564 1564 1565 1566 1566 1566 1566 1566 1567 1567 1567 1568 1567 1567 1565 1565 1565 1564 1563 1563 1563 1562 1562 1562 1562 1561 1560 1559
1532 1533 1535 1538 1541 1545 1547 1549 1552 1554 1556 1558 1560 1562 1562 1563 1563 1564 1565 1565 1565 1565 1565 1565 1565 1565 1566 1565 1565 1564 1563 1562 1561 1560 1560 1560 1559 1559 1558 1557 1557 1557 1556
1531 1533 1535 1537 1540 1543 1546 1548 1551 1554 1555 1557 1558 1560 1561 1561 1562 1563 1563 1563 1563 1563 1563 1563 1564 1564 1563 1563 1563 1562 1561 1560 1559 1557 1556 1556 1556 1556 1555 1554 1553 1552 1552
1530 1532 1534 1536 1538 1542 1545 1547 1549 1551 1554 1556 1557 1558 1559 1560 1561 1561 1562 1562 1562 1561 1562 1561 1561 1561 1561 1561 1560 1560 1559 1558 1556 1554 1553 1553 1552 1551 1551 1551 1549 1548 1548
1528 1531 1533 1535 1537 1540 1543 1545 1547 1550 1551 1553 1555 1556 1557 1558 1559 1559 1559 1559 1559 1559 1558 1558 1558 1557 1556 1555 1555 1554 1553 1553 1551 1550 1548 1547 1547 1546 1546 1545 1545 1545 1543
1526 1528 1530 1533 1536 1539 1541 1544 1545 1547 1550 1552 1552 1553 1555 1555 1556 1556 1556 1556 1556 1555 1554 1554 1553 1552 1551 1550 1549 1548 1547 1546 1546 1545 1545 1543 1541 1540 1540 1540 1539 1539 1538
1522 1525 1528 1531 1534 1536 1539 1541 1543 1546 1548 1549 1550 1551 1552 1553 1554 1553 1553 1552 1551 1551 1551 1550 1550 1549 1547 1546 1544 1543 1542 1540 1539 1538 1538 1537 1537 1536 1534 1533 1533 1532 1531
1518 1521 1525 1530 1531 1534 1536 1538 1541 1543 1546 1547 1548 1549 1550 1550 1550 1550 1550 1550 1549 1549 1549 1548 1546 1545 1544 1542 1540 1538 1537 1535 1533 1532 1531 1530 1529 1528 1526 1524 1524 1523 1523
1515 1518 1523 1525 1527 1529 1533 1536 1539 1541 1543 1545 1546 1547 1548 1548 1549 1549 1549 1548 1548 1547 1546 1544 1543 1541 1540 1537 1535 1533 1531 1530 1528 1526 1524 1522 1521 1520 1519 1517 1516 1514 1513
1511 1514 1518 1520 1523 1526 1529 1531 1537 1538 1541 1542 1544 1545 1546 1547 1547 1547 1546 1545 1544 1543 1541 1540 1539 1538 1537 1534 1530 1527 1525 1523 1522 1521 1519 1518 1516 1515 1512 1510 1507 1505 1504
1507 1509 1514 1518 1522 1524 1527 1529 1533 1536 1538 1541 1543 1544 1544 1544 1544 1544 1543 1542 1541 1540 1538 1537 1535 1534 1532 1530 1527 1524 1520 1520 1517 1516 1514 1511 1509 1508 1507 1504 1501 1498 1496
1502 1504 1509 1514 1518 1521 1524 1527 1529 1533 1537 1540 1541 1542 1542 1542 1542 1541 1540 1540 1539 1537 1535 1534 1532 1530 1528 1527 1526 1525 1520 1516 1513 1511 1509 1505 1504 1503 1500 1498 1495 1493 1490
1497 1502 1506 1511 1514 1518 1522 1525 1527 1530 1534 1537 1538 1539 1540 1540 1539 1538 1537 1537 1536 1534 1533 1531 1529 1528 1526 1524 1524 1523 1521 1517 1511 1501 1506 1504 1500 1496 1494 1491 1488 1485 1482
1495 1499 1504 1508 1513 1516 1520 1524 1526 1529 1531 1533 1535 1536 1536 1536 1536 1535 1535 1534 1533 1533 1531 1529 1528 1526 1524 1523 1520 1517 1515 1513 1512 1509 1493 1496 1495 1493 1489 1485 1482 1478 1474
1491 1497 1501 1504 1509 1513 1518 1522 1525 1527 1528 1530 1531 1532 1533 1533 1533 1533 1532 1532 1532 1531 1529 1527 1526 1524 1522 1519 1516 1514 1512 1509 1506 1503 1499 1491 1487 1482 1480 1478 1474 1470 1466